Location: Unspecified
(44.4377°N, 88.0525°W)
Time: 14:29:09
(UTC-05:00)

Cosmos 1674 - Visible Passes

Search period start: 25 June 2016 00:00
Search period end: 05 July 2016 00:00
Orbit: 502 x 524 km, 82.5° (Epoch: 25 June)

Date Brightness Start Highest point End Pass type
(mag) Time Alt. Az. Time Alt. Az. Time Alt. Az.
25 Jun 3.5 21:11:50 10° SSE 21:15:17 33° E 21:18:47 10° NNE visible
25 Jun 5.4 22:48:25 10° WSW 22:51:04 18° WNW 22:53:46 10° NNW visible
26 Jun 5.2 22:32:13 10° SW 22:35:13 21° WNW 22:38:15 10° NNW visible
27 Jun 4.9 22:16:07 10° SW 22:19:22 26° WNW 22:22:39 10° NNW visible
28 Jun 4.6 22:00:04 10° SW 22:03:31 32° WNW 22:07:02 10° N visible
29 Jun 4.2 21:44:05 10° SSW 21:47:42 39° WNW 21:51:22 10° N visible
30 Jun 3.8 21:28:09 10° SSW 21:31:53 49° WNW 21:35:39 10° N visible
01 Jul 3.3 21:12:16 10° SSW 21:16:03 61° W 21:19:55 10° N visible
